Time,TemperatureF,DewpointF,PressureIn,WindDirection,WindDirectionDegrees,WindSpeedMPH,WindSpeedGustMPH,Humidity,HourlyPrecipIn,Conditions,Clouds,dailyrainin,SolarRadiationWatts/m^2,SoftwareType,DateUTC
2013-01-13 12:33:00,19.0,13.0,-100.00,NW,309,7.0,11.0,78,-99.99,,,0.16,339.000000,,2013-01-13 18:33:00,
2013-01-13 12:43:00,19.0,13.0,-100.00,NW,309,7.0,11.0,78,-99.99,,,0.16,339.000000,,2013-01-13 18:43:00,
2013-01-13 12:53:00,19.0,13.0,-100.00,NW,309,7.0,11.0,78,-99.99,,,0.16,339.000000,,2013-01-13 18:53:00,
2013-01-13 13:02:00,19.0,13.0,-100.00,NW,309,7.0,11.0,78,-99.99,,,0.16,339.000000,,2013-01-13 19:02:00,
2013-01-13 13:12:00,19.0,13.0,-100.00,NW,309,7.0,11.0,78,-99.99,,,0.16,339.000000,,2013-01-13 19:12:00,
2013-01-13 13:43:00,22.0,16.0,-100.00,WNW,289,7.0,11.0,76,0.00,,,0.16,615.000000,,2013-01-13 19:43:00,
2013-01-13 13:53:00,22.0,16.0,-100.00,WNW,289,7.0,11.0,76,0.00,,,0.16,615.000000,,2013-01-13 19:53:00,
2013-01-13 14:03:00,22.0,16.0,-100.00,WNW,289,7.0,11.0,76,0.00,,,0.16,615.000000,,2013-01-13 20:03:00,
2013-01-13 14:12:00,22.0,16.0,-100.00,WNW,289,7.0,11.0,76,0.00,,,0.16,615.000000,,2013-01-13 20:12:00,
2013-01-13 14:33:00,22.0,15.0,-100.00,WNW,300,7.0,15.0,74,0.00,,,0.16,532.000000,,2013-01-13 20:33:00,
2013-01-13 14:43:00,22.0,15.0,-100.00,WNW,300,7.0,15.0,74,0.00,,,0.16,532.000000,,2013-01-13 20:43:00,
2013-01-13 14:53:00,22.0,15.0,-100.00,WNW,300,7.0,15.0,74,0.00,,,0.16,532.000000,,2013-01-13 20:53:00,
2013-01-13 15:03:00,22.0,15.0,-100.00,WNW,300,7.0,15.0,74,0.00,,,0.16,532.000000,,2013-01-13 21:03:00,
2013-01-13 15:12:00,22.0,15.0,-100.00,WNW,300,7.0,15.0,74,0.00,,,0.16,532.000000,,2013-01-13 21:12:00,
2013-01-13 15:33:00,23.0,16.0,-100.00,NW,305,6.0,12.0,75,0.00,,,0.16,257.000000,,2013-01-13 21:33:00,
2013-01-13 15:43:00,23.0,16.0,-100.00,NW,305,6.0,12.0,75,0.00,,,0.16,257.000000,,2013-01-13 21:43:00,
2013-01-13 15:53:00,23.0,16.0,-100.00,NW,305,6.0,12.0,75,0.00,,,0.16,257.000000,,2013-01-13 21:53:00,
2013-01-13 16:02:00,23.0,16.0,-100.00,NW,305,6.0,12.0,75,0.00,,,0.16,257.000000,,2013-01-13 22:02:00,
2013-01-13 16:12:00,23.0,16.0,-100.00,NW,305,6.0,12.0,75,0.00,,,0.16,257.000000,,2013-01-13 22:12:00,
2013-01-13 17:33:00,21.0,14.0,-100.00,WNW,300,4.0,9.0,75,-99.99,,,0.06,164.000000,,2013-01-13 23:33:00,
2013-01-13 17:43:00,21.0,14.0,-100.00,WNW,300,4.0,9.0,75,-99.99,,,0.06,164.000000,,2013-01-13 23:43:00,
2013-01-13 17:53:00,21.0,14.0,-100.00,WNW,300,4.0,9.0,75,-99.99,,,0.06,164.000000,,2013-01-13 23:53:00,
2013-01-13 18:03:00,21.0,14.0,-100.00,WNW,300,4.0,9.0,75,-99.99,,,0.06,164.000000,,2013-01-14 00:03:00,
2013-01-13 18:12:00,21.0,14.0,-100.00,WNW,300,4.0,9.0,75,-99.99,,,0.06,164.000000,,2013-01-14 00:12:00,
2013-01-13 18:43:00,19.0,14.0,-100.00,WNW,296,2.0,5.0,82,0.00,,,0.00,1.000000,,2013-01-14 00:43:00,
2013-01-13 18:53:00,19.0,14.0,-100.00,WNW,296,2.0,5.0,82,0.00,,,0.00,1.000000,,2013-01-14 00:53:00,
2013-01-13 19:03:00,19.0,14.0,-100.00,WNW,296,2.0,5.0,82,0.00,,,0.00,1.000000,,2013-01-14 01:03:00,
2013-01-13 19:12:00,19.0,14.0,-100.00,WNW,296,2.0,5.0,82,0.00,,,0.00,1.000000,,2013-01-14 01:12:00,
2013-01-13 19:42:00,18.0,13.0,-100.00,WNW,300,2.0,4.0,81,0.00,,,-99.99,0.000000,,2013-01-14 01:42:00,
2013-01-13 19:53:00,18.0,13.0,-100.00,WNW,300,2.0,4.0,81,0.00,,,-99.99,0.000000,,2013-01-14 01:53:00,
2013-01-13 20:03:00,18.0,13.0,-100.00,WNW,300,2.0,4.0,81,0.00,,,-99.99,0.000000,,2013-01-14 02:03:00,
2013-01-13 20:12:00,18.0,13.0,-100.00,WNW,300,2.0,4.0,81,0.00,,,-99.99,0.000000,,2013-01-14 02:12:00,
2013-01-13 20:43:00,17.0,12.0,-100.00,NW,323,3.0,5.0,81,0.00,,,-99.99,0.000000,,2013-01-14 02:43:00,
2013-01-13 20:53:00,17.0,12.0,-100.00,NW,323,3.0,5.0,81,0.00,,,-99.99,0.000000,,2013-01-14 02:53:00,
2013-01-13 21:02:00,17.0,12.0,-100.00,NW,323,3.0,5.0,81,0.00,,,-99.99,0.000000,,2013-01-14 03:02:00,
2013-01-13 21:12:00,17.0,12.0,-100.00,NW,323,3.0,5.0,81,0.00,,,-99.99,0.000000,,2013-01-14 03:12:00,
2013-01-13 21:33:00,16.0,11.0,-100.00,WSW,258,2.0,5.0,81,0.00,,,-99.99,0.000000,,2013-01-14 03:33:00,
2013-01-13 21:43:00,16.0,11.0,-100.00,WSW,258,2.0,5.0,81,0.00,,,-99.99,0.000000,,2013-01-14 03:43:00,
2013-01-13 21:53:00,16.0,11.0,-100.00,WSW,258,2.0,5.0,81,0.00,,,-99.99,0.000000,,2013-01-14 03:53:00,
2013-01-13 22:02:00,16.0,11.0,-100.00,WSW,258,2.0,5.0,81,0.00,,,-99.99,0.000000,,2013-01-14 04:02:00,
2013-01-13 22:12:00,16.0,11.0,-100.00,WSW,258,2.0,5.0,81,0.00,,,-99.99,0.000000,,2013-01-14 04:12:00,
2013-01-13 22:32:00,16.0,12.0,-100.00,West,274,3.0,4.0,83,0.00,,,-99.99,0.000000,,2013-01-14 04:32:00,
2013-01-13 22:42:00,16.0,12.0,-100.00,West,274,3.0,4.0,83,0.00,,,-99.99,0.000000,,2013-01-14 04:42:00,
2013-01-13 22:53:00,16.0,12.0,-100.00,West,274,3.0,4.0,83,0.00,,,-99.99,0.000000,,2013-01-14 04:53:00,
2013-01-13 23:04:00,16.0,12.0,-100.00,West,274,3.0,4.0,83,0.00,,,-99.99,0.000000,,2013-01-14 05:04:00,
2013-01-13 23:12:00,16.0,12.0,-100.00,West,274,3.0,4.0,83,0.00,,,-99.99,0.000000,,2013-01-14 05:12:00,
2013-01-13 23:33:00,15.0,11.0,-100.00,SSW,210,3.0,4.0,84,0.00,,,-99.99,0.000000,,2013-01-14 05:33:00,
2013-01-13 23:43:00,15.0,11.0,-100.00,SSW,210,3.0,4.0,84,0.00,,,-99.99,0.000000,,2013-01-14 05:43:00,
2013-01-13 23:53:00,15.0,11.0,-100.00,SSW,210,3.0,4.0,84,0.00,,,-99.99,0.000000,,2013-01-14 05:53:00,